STARLINK-34497, 64696

Orbit data source: Space-Track

STARLINK-34497, 64696 is a payload satellite owned by SpaceX/Seattle (US) in LEO that was launched on Sat, 28 Jun 2025 UTC via an FALCON 9 launch vehicle from the Air Force Western Test Range (AFWTR). Payload-class satellites include a variety of spacecraft equipped with specific instruments for various scientific and technological missions. These include communications satellites like Starlink; space stations such as the ISS; scientific satellites like the Hubble; Earth observation satellites from companies like Planet Labs, Umbra, and HawkEye 360; GPS; miniature CubeSats for education and research; and military/defense satellites.

Loading next visibility...
Identifier
64696, 2025-142A
Orbit
LEO
Country
Flag of USUS
Related business
Manufacturer
SpaceX/Seattle
Mission
Operational Commercial Communications
Bus & Motor
STARLINK V2MO, Unknown motor
Mass
575 kg wet, ~530 kg dry
Launch date (UTC)
2025-06-28 (1 year ago)
Launch vehicle
FALCON 9
Launch site
Air Force Western Test Range (AFWTR)
Object type
Payload
Rocket body
Debris
Shape & HBR
Box + 2 Pan, 17.7 m
Radar Cross Section
36.964 m², Large (>1 m²)

Expand to show TLE details & history
Last TLE update: 5 hours ago

TLE from 5 hours ago
0 STARLINK-34497
1 64696U 25142A   26207.62933214  .00000530  00000-0  52225-4 0  9990
2 64696  70.0048 324.1004 0002761 273.6612  86.4231 14.98332593 60455
Epoch: 2026-07-26T15:06Z
TLE epoch observation values (Epoch: 2026-07-26T15:06:14.296Z)
Latitude
-0.00008°
Longitude
153.21629°
Altitude
574.353 km
Speed
7.574 km/s
True Right ascension
21h 36m 24s
True Declination
0° 00' 00"
Sunlit
Object was in full shadow at epoch
Visualization orbit readout
Latitude
Unknown
Longitude
Unknown
Altitude
Unknown
Speed
Unknown
Apparent Right ascension
Unknown
Apparent Declination
Unknown
Sunlit
N/A
Visualization observer readout
Local Sidereal Time
09:49:30
Azimuth
Unknown
Elevation
Unknown
Doppler factor
Unknown
Orbital elements
Apogee altitude
571.914 km
Perigee altitude
568.077 km
Semi-major axis
6,948.133 km
Eccentricity
0.00028
Inclination
70.0048°
RAAN
324.1004°
Arg. of periapsis
273.6612°
True anomaly
86.45468°
Mean anomaly
86.4231°
Eccentric anomaly
86.43889°
Mean motion
3.74749 °/min
Orbital period
96.06 mins
BSTAR
0.000052225
Loading maneuver chart data...
Computing Atmospheric mass density...
Loading historical data...
Loading historical data...
Loading historical data...
Loading historical data...
Loading historical data...
Loading historical data...
Loading historical data...

Documentation

Showing up to 5 results
|